TimeEDT,TemperatureF,Dew PointF,Humidity,Sea Level PressureIn,VisibilityMPH,Wind Direction,Wind SpeedMPH,Gust SpeedMPH,PrecipitationIn,Events,Conditions,WindDirDegrees,DateUTC
12:52 AM,48.0,42.1,80,30.10,10.0,SSE,8.1,-,N/A,,Clear,160,2012-10-19 04:52:00
1:52 AM,46.0,41.0,83,30.09,10.0,Calm,Calm,-,N/A,,Clear,0,2012-10-19 05:52:00
2:52 AM,42.1,39.0,89,30.10,10.0,NNW,5.8,-,N/A,,Clear,340,2012-10-19 06:52:00
3:52 AM,37.9,36.0,93,30.10,10.0,North,4.6,-,N/A,,Clear,350,2012-10-19 07:52:00
4:52 AM,41.0,37.9,89,30.09,10.0,NNW,4.6,-,N/A,,Clear,340,2012-10-19 08:52:00
5:52 AM,39.9,37.9,93,30.10,10.0,Calm,Calm,-,N/A,,Scattered Clouds,0,2012-10-19 09:52:00
6:22 AM,39.2,37.4,93,30.08,10.0,Calm,Calm,-,N/A,,Mostly Cloudy,0,2012-10-19 10:22:00
6:52 AM,41.0,37.9,89,30.10,10.0,Calm,Calm,-,N/A,,Overcast,0,2012-10-19 10:52:00
7:52 AM,45.0,42.1,90,30.11,10.0,Calm,Calm,-,N/A,,Overcast,0,2012-10-19 11:52:00
8:52 AM,46.9,45.0,93,30.11,10.0,Calm,Calm,-,0.00,Rain,Light Rain,0,2012-10-19 12:52:00
9:30 AM,48.2,44.6,87,30.08,10.0,NW,4.6,-,0.00,Rain,Light Rain,320,2012-10-19 13:30:00
9:49 AM,48.2,46.4,93,30.08,8.0,Calm,Calm,-,0.00,Rain,Light Rain,0,2012-10-19 13:49:00
9:52 AM,48.0,46.0,93,30.10,8.0,Variable,3.5,-,0.00,Rain,Light Rain,0,2012-10-19 13:52:00
10:50 AM,48.2,46.4,93,30.06,8.0,Variable,3.5,-,0.01,,Overcast,0,2012-10-19 14:50:00
10:52 AM,50.0,48.0,93,30.07,9.0,Calm,Calm,-,0.01,,Overcast,0,2012-10-19 14:52:00
11:30 AM,53.6,48.2,82,30.06,9.0,Calm,Calm,-,N/A,,Overcast,0,2012-10-19 15:30:00
11:52 AM,55.0,50.0,83,30.05,7.0,Variable,4.6,-,0.00,Rain,Light Rain,0,2012-10-19 15:52:00
12:20 PM,55.4,48.2,77,30.04,10.0,SSE,13.8,31.1,N/A,,Overcast,150,2012-10-19 16:20:00
12:52 PM,55.9,50.0,80,30.02,10.0,SSE,12.7,-,N/A,,Overcast,150,2012-10-19 16:52:00
1:48 PM,57.2,51.8,82,29.99,10.0,SSE,13.8,35.7,N/A,,Mostly Cloudy,160,2012-10-19 17:48:00
1:52 PM,57.9,51.1,78,30.00,10.0,SSE,15.0,26.5,N/A,,Mostly Cloudy,150,2012-10-19 17:52:00
2:45 PM,57.2,51.8,82,29.95,10.0,SE,19.6,32.2,0.00,,Mostly Cloudy,130,2012-10-19 18:45:00
2:52 PM,57.9,51.1,78,29.97,10.0,SE,16.1,31.1,0.00,Rain,Light Rain,140,2012-10-19 18:52:00
3:10 PM,57.2,51.8,82,29.95,9.0,SE,16.1,23.0,0.01,Rain,Light Rain,130,2012-10-19 19:10:00
3:52 PM,57.9,52.0,81,29.97,10.0,SE,13.8,18.4,0.01,,Overcast,140,2012-10-19 19:52:00
4:52 PM,57.0,53.1,87,29.94,6.0,SE,16.1,20.7,0.00,Rain,Light Rain,140,2012-10-19 20:52:00
5:52 PM,57.9,52.0,81,29.91,10.0,SE,15.0,23.0,0.02,Rain,Light Rain,140,2012-10-19 21:52:00
6:52 PM,57.0,52.0,83,29.87,10.0,ESE,9.2,-,0.00,Rain,Light Rain,120,2012-10-19 22:52:00
7:52 PM,55.9,53.1,90,29.85,5.0,SE,6.9,-,0.02,Rain,Light Rain,130,2012-10-19 23:52:00
8:52 PM,55.9,53.1,90,29.82,10.0,NNW,3.5,-,0.03,Rain,Light Rain,330,2012-10-20 00:52:00
9:52 PM,55.9,54.0,93,29.81,9.0,Calm,Calm,-,0.01,Rain,Light Rain,0,2012-10-20 01:52:00
10:14 PM,55.4,53.6,94,29.80,10.0,Calm,Calm,-,0.01,Rain,Light Rain,0,2012-10-20 02:14:00
10:52 PM,54.0,53.1,97,29.79,6.0,Calm,Calm,-,0.01,,Mostly Cloudy,0,2012-10-20 02:52:00
11:26 PM,55.4,53.6,94,29.77,10.0,NNW,4.6,-,N/A,,Overcast,330,2012-10-20 03:26:00
11:52 PM,55.9,54.0,93,29.79,10.0,North,4.6,-,N/A,,Overcast,350,2012-10-20 03:52:00